Two Harbors, MN

7:39 AM CST on December 11, 2017 (GMT -0600)
Helgeson

Weather History for KTWM - August, 2014

Change the Weather History Date:

Sunday, August 17, 2014

  Actual Average Record
Temperature  
Mean Temperature 56 °F -  
Max Temperature 59 °F 73 °F 87 °F (2008)
Min Temperature 53 °F 54 °F 39 °F (2012)
Degree Days  
Heating Degree Days 9    
Growing Degree Days 6 (Base 50)    
Moisture  
Dew Point 50 °F    
Average Humidity 80    
Maximum Humidity 88    
Minimum Humidity 72    
Precipitation  
Precipitation 0.26 in - - ()
Sea Level Pressure  
Sea Level Pressure 30.02 in    
Wind  
Wind Speed 10 mph (ENE)    
Max Wind Speed 15 mph    
Max Gust Speed 21 mph    
Visibility 10 miles    
Events Rain    
Averages and records for this station are not official NWS values.
T = Trace of Precipitation, MM = Missing Value Source: NWS Daily Summary

Daily Weather History Graph

Daily Weather History Graph

Search for Another Location

Airport or City:

Trip Planner

Search our weather history database for the weather conditions in past years. The results will help you decide how hot, cold, wet, or windy it might be!

Date:

Astronomy

Aug. 17, 2014 Rise Set
Actual Time 6:06 AM CDT 8:14 PM CDT
Civil Twilight 5:33 AM CDT 8:47 PM CDT
Nautical Twilight 4:52 AM CDT 9:28 PM CDT
Astronomical Twilight 4:06 AM CDT 10:14 PM CDT
Moon No Moon Rise 2:24 PM CDT (8/17)
Length of Visible Light 15h 13m
Length of Day
14h 07m
Waning Gibbous, 48% of the Moon is Illuminated
Aug 17
Waning Gibbous
Aug 25
New
Sep 2
First Quarter
Sep 8
Full
Sep 15
Last Quarter

Hourly Weather History & Observations

Time (CDT) Temp. Dew Point Humidity Pressure Visibility Wind Dir Wind Speed Gust Speed Precip Events Conditions
12:15 AM 59.0 °F 53.6 °F 82% 30.02 in 10.0 mi ENE 11.5 mph 17.3 mph N/A   Overcast
12:34 AM 59.0 °F 53.6 °F 82% 30.02 in 10.0 mi ENE 9.2 mph - N/A   Overcast
12:54 AM 59.0 °F 53.6 °F 82% 30.02 in 10.0 mi ENE 10.4 mph - N/A   Overcast
1:15 AM 59.0 °F 53.6 °F 82% 30.02 in 10.0 mi ENE 15.0 mph 20.7 mph N/A   Overcast
1:34 AM 57.2 °F 51.8 °F 82% 30.03 in 10.0 mi ENE 11.5 mph - N/A   Overcast
2:14 AM 57.2 °F 51.8 °F 82% 30.04 in 10.0 mi East 11.5 mph - N/A   Overcast
2:34 AM 57.2 °F 51.8 °F 82% 30.04 in 10.0 mi East 10.4 mph - N/A   Overcast
2:54 AM 57.2 °F 51.8 °F 82% 30.05 in 10.0 mi East 9.2 mph - N/A   Overcast
3:14 AM 57.2 °F 51.8 °F 82% 30.06 in 10.0 mi East 6.9 mph - N/A   Overcast
3:34 AM 57.2 °F 51.8 °F 82% 30.06 in 10.0 mi East 8.1 mph - N/A   Overcast
3:54 AM 57.2 °F 50.0 °F 77% 30.05 in 10.0 mi East 9.2 mph - N/A   Overcast
4:14 AM 57.2 °F 50.0 °F 77% 30.05 in 10.0 mi East 6.9 mph - N/A   Overcast
4:34 AM 57.2 °F 50.0 °F 77% 30.04 in 10.0 mi East 9.2 mph - N/A   Overcast
4:54 AM 55.4 °F 50.0 °F 82% 30.05 in 10.0 mi East 9.2 mph - N/A   Overcast
5:14 AM 55.4 °F 50.0 °F 82% 30.05 in 10.0 mi East 9.2 mph - N/A   Mostly Cloudy
5:34 AM 55.4 °F 50.0 °F 82% 30.05 in 10.0 mi East 8.1 mph - N/A   Mostly Cloudy
5:54 AM 55.4 °F 50.0 °F 82% 30.05 in 10.0 mi ENE 5.8 mph - N/A   Mostly Cloudy
6:14 AM 55.4 °F 48.2 °F 77% 30.06 in 10.0 mi ENE 5.8 mph - N/A   Mostly Cloudy
6:34 AM 53.6 °F 48.2 °F 82% 30.06 in 10.0 mi NE 3.5 mph - N/A   Scattered Clouds
6:54 AM 55.4 °F 48.2 °F 77% 30.07 in 10.0 mi Calm Calm - N/A   Mostly Cloudy
7:14 AM 55.4 °F 48.2 °F 77% 30.07 in 10.0 mi NE 4.6 mph - N/A   Overcast
7:34 AM 57.2 °F 48.2 °F 72% 30.06 in 10.0 mi East 11.5 mph - N/A   Overcast
7:54 AM 57.2 °F 48.2 °F 72% 30.07 in 10.0 mi East 8.1 mph - N/A   Overcast
8:14 AM 55.4 °F 48.2 °F 77% 30.07 in 10.0 mi East 6.9 mph - N/A   Overcast
8:34 AM 57.2 °F 48.2 °F 72% 30.06 in 10.0 mi East 11.5 mph - N/A   Overcast
8:54 AM 57.2 °F 50.0 °F 77% 30.06 in 10.0 mi East 11.5 mph 17.3 mph N/A   Overcast
9:14 AM 57.2 °F 50.0 °F 77% 30.06 in 10.0 mi East 11.5 mph 19.6 mph N/A   Overcast
9:34 AM 57.2 °F 50.0 °F 77% 30.07 in 10.0 mi ENE 13.8 mph - N/A   Overcast
9:54 AM 57.2 °F 50.0 °F 77% 30.07 in 10.0 mi East 12.7 mph - N/A   Overcast
10:14 AM 57.2 °F 50.0 °F 77% 30.07 in 10.0 mi East 13.8 mph - N/A   Overcast
10:34 AM 57.2 °F 50.0 °F 77% 30.07 in 10.0 mi East 13.8 mph - N/A   Overcast
10:54 AM 57.2 °F 50.0 °F 77% 30.07 in 10.0 mi East 13.8 mph 17.3 mph N/A   Overcast
11:14 AM 59.0 °F 50.0 °F 72% 30.08 in 10.0 mi East 11.5 mph - N/A   Overcast
11:34 AM 57.2 °F 50.0 °F 77% 30.07 in 10.0 mi East 15.0 mph 18.4 mph N/A   Overcast
11:54 AM 59.0 °F 50.0 °F 72% 30.07 in 10.0 mi East 15.0 mph 19.6 mph N/A   Overcast
12:14 PM 57.2 °F 51.8 °F 82% 30.06 in 10.0 mi East 13.8 mph 18.4 mph N/A   Overcast
12:34 PM 57.2 °F 50.0 °F 77% 30.06 in 10.0 mi East 15.0 mph 18.4 mph N/A   Overcast
12:54 PM 57.2 °F 51.8 °F 82% 30.06 in 10.0 mi East 15.0 mph - N/A   Overcast
1:14 PM 57.2 °F 51.8 °F 82% 30.07 in 10.0 mi East 13.8 mph - N/A   Overcast
1:34 PM 57.2 °F 51.8 °F 82% 30.07 in 10.0 mi East 12.7 mph 17.3 mph N/A   Overcast
1:54 PM 57.2 °F 50.0 °F 77% 30.05 in 10.0 mi East 12.7 mph - N/A   Overcast
2:14 PM 57.2 °F 50.0 °F 77% 30.04 in 10.0 mi ENE 15.0 mph - N/A   Overcast
2:34 PM 59.0 °F 50.0 °F 72% 30.05 in 10.0 mi ENE 11.5 mph - N/A   Overcast
2:54 PM 57.2 °F 50.0 °F 77% 30.04 in 10.0 mi East 11.5 mph - N/A   Overcast
3:14 PM 57.2 °F 50.0 °F 77% 30.04 in 10.0 mi East 6.9 mph - N/A   Overcast
3:34 PM 57.2 °F 50.0 °F 77% 30.03 in 10.0 mi ENE 11.5 mph - N/A   Overcast
3:54 PM 57.2 °F 50.0 °F 77% 30.02 in 10.0 mi East 12.7 mph - N/A   Overcast
4:14 PM 57.2 °F 50.0 °F 77% 30.02 in 10.0 mi ENE 11.5 mph - N/A   Overcast
4:34 PM 55.4 °F 50.0 °F 82% 30.03 in 10.0 mi East 11.5 mph - N/A   Overcast
5:14 PM 55.4 °F 50.0 °F 82% 30.02 in 7.0 mi East 9.2 mph - 0.01 in Rain Rain
5:34 PM 53.6 °F 48.2 °F 82% 30.01 in 10.0 mi ENE 6.9 mph - 0.08 in Rain Rain
5:54 PM 53.6 °F 48.2 °F 82% 29.99 in 10.0 mi ENE 6.9 mph - 0.17 in Rain Rain
6:14 PM 53.6 °F 48.2 °F 82% 29.99 in 10.0 mi NE 8.1 mph - 0.06 in Rain Light Rain
6:34 PM 53.6 °F 48.2 °F 82% 29.96 in 10.0 mi ENE 9.2 mph - 0.07 in   Light Drizzle
6:54 PM 53.6 °F 48.2 °F 82% 29.96 in 10.0 mi East 9.2 mph - 0.07 in   Mostly Cloudy
7:14 PM 53.6 °F 48.2 °F 82% 29.96 in 10.0 mi ENE 8.1 mph - N/A   Overcast
7:34 PM 53.6 °F 48.2 °F 82% 29.96 in 10.0 mi ENE 6.9 mph - N/A   Overcast
7:54 PM 53.6 °F 48.2 °F 82% 29.96 in 10.0 mi ENE 5.8 mph - N/A   Overcast
8:14 PM 53.6 °F 48.2 °F 82% 29.95 in 10.0 mi NE 5.8 mph - N/A   Overcast
8:34 PM 53.6 °F 48.2 °F 82% 29.95 in 10.0 mi NE 5.8 mph - N/A   Overcast
8:54 PM 53.6 °F 48.2 °F 82% 29.96 in 10.0 mi NE 5.8 mph - N/A   Overcast
9:14 PM 53.6 °F 48.2 °F 82% 29.97 in 10.0 mi NE 4.6 mph - N/A   Overcast
9:34 PM 53.6 °F 48.2 °F 82% 29.96 in 10.0 mi NE 4.6 mph - N/A   Overcast
9:54 PM 53.6 °F 48.2 °F 82% 29.96 in 10.0 mi NE 3.5 mph - N/A   Overcast
10:15 PM 53.6 °F 48.2 °F 82% 29.95 in 10.0 mi NNE 4.6 mph - N/A   Overcast
10:34 PM 53.6 °F 48.2 °F 82% 29.94 in 10.0 mi NE 3.5 mph - N/A   Overcast
10:54 PM 53.6 °F 50.0 °F 88% 29.94 in 10.0 mi NE 3.5 mph - N/A Rain Light Rain
11:14 PM 53.6 °F 50.0 °F 88% 29.93 in 10.0 mi ENE 4.6 mph - 0.02 in   Light Drizzle
11:34 PM 55.4 °F 50.0 °F 82% 29.93 in 7.0 mi NE 4.6 mph - 0.02 in   Overcast
11:54 PM 55.4 °F 50.0 °F 82% 29.92 in 3.0 mi ENE 3.5 mph - 0.02 in   Haze